Lapse_Rate
8.0 7.9 7.5 6.4 6.3 6.6 5.8 4.9 6.5 6.2 5.9 6.3 6.2 6.5 6.5 6.5 6.5 6.9 6.5 6.5 6.5 6.5 6.5 6.5 6.5 6.5 6.5 6.3 6.5 6.5 6.5 6.5 6.5 6.5 6.5 6.5 6.5 6.5 6.5 6.5 6.5 6.5 6.5 6.5
8.2 7.6 7.1 7.1 6.7 6.1 4.2 4.6 5.0 5.8 5.9 6.5 6.5 6.5 6.5 6.6 6.5 6.5 6.5 6.5 6.5 6.5 6.5 6.5 6.5 6.5 6.4 6.1 6.5 6.5 6.5 6.5 6.5 6.5 6.5 6.5 6.5 6.5 6.5 6.5 6.5 6.5 6.5 6.5
7.9 7.7 7.3 6.6 6.5 6.0 3.5 4.6 6.5 4.6 4.5 4.9 6.5 6.5 6.5 6.5 6.7 6.5 6.6 6.5 6.5 6.5 6.5 6.5 6.5 6.5 6.5 6.2 6.4 6.4 6.3 6.5 6.5 6.5 6.5 6.5 6.5 6.5 6.5 6.5 6.5 6.5 6.5 6.5
7.8 7.6 7.5 6.9 6.1 5.9 3.7 3.7 5.9 6.0 6.5 6.4 6.5 6.5 6.5 6.5 6.5 6.6 6.7 6.5 6.5 6.5 6.5 6.5 6.5 6.5 6.5 6.5 6.7 6.4 6.5 6.5 6.5 6.5 6.5 6.5 6.5 6.5 6.5 6.5 6.5 6.5 6.5 6.5
8.0 7.9 7.3 6.7 6.1 5.9 4.5 3.8 5.6 4.6 5.7 6.2 6.5 6.5 6.5 6.5 6.5 6.5 6.5 6.5 6.5 6.5 6.5 6.5 6.5 6.5 6.5 6.5 6.5 6.5 6.5 6.5 6.5 6.5 6.5 6.5 6.5 6.5 6.5 6.5 6.5 6.5 6.5 6.5
8.1 7.6 6.9 6.5 6.3 5.2 4.6 4.6 4.8 4.7 6.0 6.5 6.5 6.5 6.5 6.5 6.5 6.5 6.5 6.4 6.5 6.5 6.5 6.3 5.5 5.0 5.5 6.3 6.5 6.5 6.5 6.5 6.5 6.5 6.5 6.5 6.5 6.5 6.5 6.5 6.5 6.5 6.5 6.5
8.1 7.3 6.8 6.5 6.1 4.4 3.3 4.1 4.2 3.7 6.5 6.5 6.5 6.5 6.5 6.5 6.5 6.5 6.5 6.3 6.5 6.7 6.2 5.3 5.0 5.2 6.2 6.3 6.5 6.4 6.5 6.5 6.5 6.5 6.5 6.5 6.5 6.5 6.5 6.5 6.5 6.5 6.5 6.5
7.8 7.3 6.8 6.5 6.4 6.1 3.6 3.3 3.9 3.8 6.5 6.5 6.5 6.5 6.5 6.1 6.1 6.4 6.5 6.5 6.4 5.6 5.2 6.5 6.5 6.5 6.5 6.5 6.5 6.5 6.5 6.5 6.5 6.5 6.5 6.5 6.5 6.5 6.5 6.5 6.5 6.5 6.5 6.5
7.7 7.4 6.9 6.8 6.7 6.2 3.4 3.5 3.4 3.7 5.2 6.3 6.7 6.4 6.1 6.5 6.5 6.5 6.3 6.1 4.9 5.1 6.4 6.5 6.5 6.5 6.5 6.5 6.5 6.5 6.5 6.5 6.5 6.5 6.5 6.5 6.5 6.5 6.9 6.5 6.5 6.5 6.6 6.5
7.7 7.5 7.2 6.6 6.5 6.3 4.2 4.2 3.4 3.3 2.5 5.0 5.3 6.0 6.1 5.4 5.8 6.5 5.8 6.0 5.4 4.3 6.5 6.5 6.5 6.5 6.5 6.5 6.5 6.5 6.5 6.5 6.5 6.5 6.5 6.5 6.5 6.6 6.9 6.5 6.5 6.8 7.0 7.0
7.5 7.5 7.1 6.6 6.4 6.4 5.1 4.4 3.7 3.3 2.9 4.8 5.5 5.7 4.8 4.6 4.2 6.5 4.6 5.8 5.2 6.2 6.5 6.5 6.5 6.5 6.5 6.5 6.5 6.5 6.5 6.5 6.5 6.5 6.5 6.5 6.8 6.7 6.5 6.8 6.8 7.1 7.2 7.3
7.5 7.3 7.1 6.8 6.5 6.6 5.9 4.2 4.1 3.7 2.8 4.7 4.8 5.9 6.6 6.5 5.6 3.8 4.0 5.2 5.5 4.1 6.5 6.5 6.5 6.5 6.5 6.5 6.5 6.5 6.5 6.5 6.5 6.5 6.5 6.8 6.9 7.0 6.9 6.6 6.9 6.9 7.2 6.9
7.4 7.2 7.2 6.9 6.7 6.8 5.6 4.2 3.3 2.5 1.7 3.1 3.5 5.6 6.4 6.2 5.9 4.6 4.1 4.9 6.1 5.2 3.5 4.1 6.4 6.5 6.5 6.5 6.5 6.5 6.5 6.7 6.5 6.5 6.5 6.6 7.0 6.9 6.8 6.8 7.0 6.7 6.6 6.1
7.6 7.4 7.5 7.2 7.0 7.1 6.3 4.4 4.0 3.7 4.0 4.3 5.9 6.8 6.9 6.8 6.1 6.3 5.4 5.6 5.6 5.1 3.9 2.3 6.5 6.5 6.0 6.5 6.5 6.5 6.5 6.6 6.5 6.5 6.6 6.8 6.9 6.7 7.0 6.9 6.7 6.8 6.9 6.9
7.7 7.5 7.4 7.4 7.3 6.9 5.2 3.8 4.0 4.3 4.4 5.0 3.7 4.1 6.2 6.4 5.4 6.0 6.4 5.7 5.2 3.9 4.2 5.9 6.5 5.7 6.3 6.2 6.5 6.5 6.7 6.5 6.5 6.5 6.8 6.6 6.8 6.9 6.6 6.8 6.9 7.2 7.4 7.0
7.5 7.5 7.5 7.3 7.1 5.4 2.9 2.2 4.1 4.9 3.8 2.9 6.4 3.8 5.9 6.0 6.3 6.1 5.9 5.1 4.1 3.5 3.7 4.0 4.6 5.3 5.2 6.5 6.5 6.7 7.1 6.9 6.4 5.6 6.4 6.3 6.8 6.5 7.1 6.6 6.4 6.3 6.3 6.5
7.5 7.4 7.4 7.3 6.7 4.4 4.0 5.0 6.3 6.3 3.7 2.2 5.5 5.9 4.8 6.2 6.2 4.6 4.4 5.9 5.1 4.7 4.4 5.3 5.1 4.9 5.5 6.5 6.5 6.7 6.7 6.8 6.5 6.7 6.4 6.6 6.7 6.4 7.5 7.6 7.2 7.4 7.6 7.8
7.7 7.5 7.4 7.5 7.2 6.4 5.3 5.8 6.6 5.5 4.0 7.1 6.5 6.5 4.4 6.0 4.2 4.9 3.5 4.5 5.5 5.2 4.5 4.3 5.8 5.0 5.6 6.5 6.6 7.0 7.0 6.7 6.7 6.3 6.5 7.1 7.2 7.3 8.1 7.3 6.4 6.2 6.4 6.2
7.5 7.4 7.2 5.2 4.6 4.6 5.6 6.4 6.0 4.9 4.4 6.7 5.3 6.5 6.5 3.9 4.2 3.4 4.6 4.8 6.4 4.7 6.4 6.1 5.7 6.5 6.5 6.4 6.7 6.7 6.6 6.5 6.4 6.7 7.2 7.4 6.9 7.2 7.2 6.8 6.1 5.5 6.3 6.1
7.4 5.5 4.2 6.5 4.5 6.8 6.6 6.4 6.6 6.4 6.7 7.0 6.6 5.3 6.5 3.9 0.8 2.9 3.8 2.9 6.5 6.5 6.3 4.3 6.5 6.5 6.6 6.8 6.8 7.0 6.6 5.8 6.2 6.6 6.9 6.3 5.8 5.6 6.0 6.0 6.1 5.6 5.6 5.8
4.4 4.5 6.3 6.4 7.4 6.8 6.8 6.5 6.7 6.8 6.5 5.7 5.7 4.7 6.1 4.5 6.2 6.5 4.5 6.5 6.5 6.5 6.5 6.5 6.5 6.5 6.6 6.6 5.3 5.0 5.5 5.2 4.9 4.6 4.6 5.3 5.0 4.7 4.8 5.1 5.0 4.7 4.4 3.6
4.1 5.2 6.2 6.6 6.8 6.9 6.5 6.5 6.0 6.5 6.5 4.6 4.6 3.9 4.2 3.9 4.4 4.0 5.4 6.5 6.5 6.5 6.2 6.5 6.5 6.5 6.6 5.7 5.6 5.4 5.0 4.4 4.1 4.7 4.5 4.9 4.7 4.5 4.0 3.8 3.3 2.4 1.5 0.4
5.9 6.7 6.1 6.5 6.6 6.5 6.5 6.5 6.5 6.5 3.2 2.5 1.8 6.1 2.8 3.6 2.8 3.1 6.5 6.5 6.5 5.9 6.5 6.5 6.5 6.7 6.3 5.9 5.5 5.3 5.1 4.6 4.2 3.8 3.7 3.6 3.0 3.3 2.7 1.3 -0.3 0.3 -0.6 -2.9
5.0 6.8 6.5 6.5 6.5 6.5 6.5 6.5 6.3 2.6 1.1 1.6 0.2 1.8 2.2 1.5 5.2 6.7 6.5 6.5 6.5 6.5 6.5 6.5 6.5 6.7 6.3 5.8 5.4 4.9 3.5 2.9 2.9 2.2 1.9 1.0 0.4 -0.7 -1.0 -1.5 -2.7 -1.9 -3.0 -4.9
6.6 6.6 6.5 6.5 4.2 5.0 5.0 5.5 5.2 3.7 5.7 1.3 2.3 3.4 3.0 6.3 6.5 6.5 6.5 6.5 6.5 6.5 6.5 6.5 5.3 4.6 3.3 2.9 2.8 1.7 1.3 0.8 0.7 -0.5 -0.1 0.1 0.2 -0.5 -3.0 -4.2 -4.5 -4.0 -5.2 -4.7
6.1 6.1 6.3 5.5 5.9 6.0 5.8 5.9 6.1 4.8 4.6 4.5 5.0 6.5 6.5 6.5 6.5 6.5 6.5 6.5 6.5 6.5 6.4 6.1 4.8 3.6 1.4 1.2 1.4 0.9 0.9 1.6 1.4 1.3 0.8 0.4 -0.4 -0.6 -1.6 -3.6 -2.9 -3.5 -3.4 -3.3
6.5 5.7 4.2 6.1 4.9 5.9 4.0 5.6 5.5 4.7 5.6 6.5 6.5 6.5 6.5 6.5 6.5 6.5 6.5 6.5 6.5 5.8 6.0 4.7 3.2 2.2 1.1 1.3 2.8 3.0 2.8 2.2 1.7 1.2 2.0 0.8 -0.0 0.5 2.0 2.5 2.1 2.2 2.5 -1.3
Wind_Speed
12 10 9 8 5 2 2 2 2 2 4 2 3 2 3 6 4 7 5 4 6 5 4 4 3 4 5 4 1 2 3 3 4 4 11 13 9 5 3 3 5 4 4 9
11 9 8 7 3 2 2 2 2 1 3 2 1 2 5 8 4 7 4 4 5 5 3 3 3 4 4 6 4 2 1 3 4 10 4 6 5 7 9 9 8 4 3 5
10 8 5 5 2 2 3 2 2 2 1 2 4 4 3 4 6 5 4 5 6 5 4 5 3 5 6 8 5 3 1 3 4 4 9 9 14 15 10 5 4 8 9 12
9 5 4 2 2 4 2 0 2 2 2 2 5 3 4 7 3 3 3 4 4 4 3 5 4 5 5 6 3 4 3 2 1 6 11 14 16 15 15 13 13 8 10 16
9 6 4 3 5 6 1 2 2 3 2 2 6 4 2 6 8 3 2 4 2 5 3 2 2 0 1 4 1 2 4 3 3 14 12 14 16 16 17 15 15 15 17 11
7 5 5 6 11 4 2 2 1 2 3 3 4 2 4 6 4 5 7 4 3 4 1 3 6 8 7 8 7 5 5 3 2 8 6 12 11 9 15 13 7 9 10 3
7 5 5 7 10 5 2 1 2 3 1 3 3 10 10 9 5 4 1 3 3 2 3 4 4 6 11 12 15 12 5 6 4 4 7 4 1 16 10 11 8 3 10 5
7 6 4 7 8 11 3 2 3 2 2 2 8 8 6 6 4 3 3 4 2 2 5 4 5 4 4 4 7 10 14 6 3 2 3 11 8 7 5 2 6 7 8 3
9 6 5 5 9 15 3 2 1 3 4 4 4 6 4 3 1 3 3 4 5 6 3 3 2 2 3 4 8 10 5 10 6 2 3 3 3 12 11 3 3 7 5 4
10 8 5 7 10 13 4 2 3 3 4 4 3 4 4 3 3 3 3 4 6 4 2 2 1 3 4 4 6 3 3 4 7 5 4 3 12 18 11 3 3 7 8 11
11 9 8 9 10 12 4 1 5 3 3 3 5 4 4 4 4 3 3 4 5 4 4 2 2 1 3 3 3 7 2 3 3 4 1 2 18 6 6 4 7 9 11 10
13 10 8 9 8 8 6 3 4 2 4 3 2 1 2 4 5 4 3 5 2 3 3 1 1 2 3 4 3 6 4 5 2 5 3 4 4 6 8 8 9 9 10 8
13 11 8 8 6 9 7 2 3 3 3 3 4 2 2 3 3 4 4 2 2 1 4 3 2 1 1 2 3 3 7 9 2 2 4 8 9 7 10 9 10 11 10 9
13 13 10 7 6 5 7 3 3 3 2 3 1 3 2 4 4 3 4 5 3 3 2 1 2 1 2 1 2 2 3 7 6 3 6 6 9 9 7 9 10 12 12 11
15 13 11 9 9 8 7 3 4 3 3 3 3 6 3 5 7 6 4 4 3 2 2 2 2 2 0 1 2 2 4 3 3 1 6 4 4 6 8 8 10 8 11 12
17 15 12 10 9 7 4 3 3 8 3 3 1 4 3 3 4 6 5 3 3 2 2 2 3 4 2 2 2 1 2 4 5 2 5 8 7 8 8 9 9 8 8 8
18 16 13 12 9 4 3 3 1 7 3 3 3 3 3 3 3 2 2 2 1 2 1 1 2 3 3 2 2 5 3 3 3 2 5 4 1 4 4 9 12 12 10 10
19 16 15 14 12 7 4 3 6 6 3 2 2 3 3 2 1 1 1 2 2 2 2 2 2 3 2 2 7 7 6 5 2 4 3 5 5 5 8 10 9 9 9 9
20 18 13 5 4 2 0 7 11 9 3 2 1 2 3 2 1 2 2 2 1 1 2 3 3 1 1 4 9 7 2 2 5 4 4 11 11 10 10 9 8 9 8 7
19 5 4 2 2 15 8 2 2 2 1 0 2 0 2 3 1 2 2 0 2 1 4 1 2 2 3 6 7 6 4 4 2 5 7 9 8 9 9 9 8 7 7 7
3 2 2 1 12 1 1 2 1 1 2 3 3 5 2 1 3 3 3 2 2 2 2 3 2 3 3 9 10 9 8 8 9 9 7 8 9 9 9 8 8 7 7 6
5 4 2 2 2 1 3 3 1 3 3 2 3 4 4 2 2 2 1 2 2 3 2 2 1 1 9 9 10 8 8 10 11 10 11 11 11 9 9 8 7 6 6 5
3 1 3 2 2 3 4 4 3 0 2 2 0 2 3 2 3 1 1 2 3 2 1 2 1 6 7 8 8 9 8 9 10 9 9 10 9 8 8 7 4 6 6 3
2 3 4 3 2 3 4 3 3 3 2 2 3 1 2 1 3 1 1 3 2 2 3 2 2 7 9 8 6 8 5 6 7 7 7 8 8 6 5 5 4 5 4 1
0 2 3 4 3 1 2 0 2 1 1 2 3 3 2 0 1 2 2 2 3 2 1 2 4 7 8 7 6 6 6 5 5 4 5 6 6 6 4 2 4 4 4 4
1 2 1 1 2 1 1 1 1 1 1 2 2 2 2 3 3 2 3 2 1 2 2 4 7 7 4 6 5 6 5 5 5 5 4 5 6 5 5 3 3 3 3 3
3 1 1 1 0 1 2 2 0 0 2 1 1 3 6 3 0 1 0 2 3 4 5 4 6 8 7 6 7 7 7 6 5 4 4 4 4 5 4 4 4 5 5 4
Wind_Direction
140 143 141 131 140 220 194 150 99 195 131 138 227 227 19 106 96 64 63 57 61 65 63 72 94 85 49 13 88 55 346 273 287 271 288 277 277 346 32 278 327 299 260 269
144 143 135 134 123 77 150 122 162 261 118 169 183 52 80 58 43 37 48 71 49 45 69 82 62 61 65 47 63 138 350 349 334 324 338 18 62 358 341 306 252 226 259 287
137 131 126 104 119 51 100 141 91 326 171 239 138 114 81 104 32 44 34 78 56 60 55 51 1 33 15 22 4 155 109 194 193 244 278 290 298 303 300 299 287 319 286 301
137 137 130 100 29 342 114 115 230 192 212 341 85 100 125 120 99 60 36 31 78 77 44 353 30 23 350 358 38 40 87 242 181 282 280 282 276 281 276 260 265 258 302 305
145 150 120 53 3 338 124 107 108 348 87 88 81 35 63 156 107 102 62 109 58 60 87 89 271 350 228 231 319 87 359 213 348 297 290 273 270 281 258 259 262 265 279 261
140 122 86 42 17 40 80 300 304 90 352 83 88 189 112 104 97 61 63 60 91 46 147 227 223 213 203 220 231 206 184 177 123 270 292 311 279 246 229 243 287 274 246 122
144 106 79 51 39 59 145 252 85 75 57 96 152 103 97 98 82 106 21 65 91 159 275 287 283 259 251 244 243 216 192 162 180 286 311 255 31 26 47 57 36 13 79 89
137 116 83 54 31 28 73 2 78 92 75 338 101 101 102 73 67 139 95 31 138 252 41 6 335 335 345 272 227 228 203 169 227 226 227 297 305 36 25 317 58 15 56 63
139 121 80 59 38 29 73 34 114 89 113 332 300 103 98 116 78 48 53 1 9 63 77 57 15 306 282 312 323 23 173 191 173 192 271 272 337 334 336 190 111 12 49 2
144 124 101 71 50 31 60 7 10 87 102 333 47 94 125 120 82 93 28 351 11 55 63 62 266 280 326 337 321 331 80 126 206 215 237 281 355 328 315 157 80 58 67 40
142 132 98 76 56 36 54 293 359 105 102 329 32 39 65 47 67 114 271 43 359 30 52 55 276 22 302 295 246 327 44 271 187 207 178 270 0 357 41 37 75 79 77 84
143 130 104 82 63 41 54 41 343 36 89 201 287 159 152 127 162 133 21 157 133 184 81 8 6 340 330 305 358 347 40 350 25 28 72 35 15 39 39 36 76 87 93 84
144 134 120 95 78 59 70 79 328 46 67 357 36 328 223 131 150 145 115 7 126 64 165 168 225 278 21 319 38 316 357 10 41 145 50 52 38 60 47 56 77 77 82 92
155 142 128 108 96 90 54 66 330 82 109 102 306 353 41 187 136 116 126 135 58 99 108 131 163 197 198 276 81 58 341 323 345 87 135 123 57 33 64 72 68 76 74 83
145 136 129 114 102 86 72 52 14 63 109 164 280 305 264 152 152 166 133 117 98 82 29 62 244 254 93 45 72 29 346 349 347 18 336 95 64 61 46 70 86 89 90 87
138 132 126 109 93 77 61 39 354 0 82 84 46 299 310 144 146 152 165 135 100 102 129 240 272 258 125 90 107 171 41 50 27 102 63 95 91 87 75 82 79 74 82 89
139 130 121 102 76 62 82 136 274 358 65 61 10 346 294 171 125 56 73 94 124 123 185 243 235 284 143 120 143 150 87 46 27 41 131 84 341 116 115 102 88 83 86 90
132 120 112 100 93 85 37 8 29 58 83 61 78 278 4 27 88 84 61 95 77 317 206 297 235 299 153 107 128 132 135 106 71 67 66 110 120 135 114 107 103 93 90 90
126 116 103 59 45 68 140 88 45 51 105 119 111 143 233 359 76 109 25 112 76 224 201 238 150 327 85 175 150 136 120 195 168 142 118 107 99 88 116 108 99 100 96 92
117 62 57 62 271 131 109 63 47 36 99 143 225 203 275 110 7 312 80 51 215 194 230 113 106 91 74 77 77 104 127 63 231 141 128 117 108 102 93 93 91 95 100 93
56 91 89 43 142 101 109 118 148 166 225 201 227 197 191 246 116 206 203 187 242 241 269 148 170 159 123 103 88 72 78 73 62 78 69 105 119 120 113 100 91 89 88 84
154 112 99 105 184 156 168 193 234 189 231 202 175 208 181 257 126 103 323 240 161 253 144 120 164 102 112 109 105 90 84 87 80 79 88 93 98 105 107 105 101 91 91 89
79 106 131 158 152 195 160 195 262 212 241 221 166 69 150 15 54 61 141 256 230 344 80 164 133 129 122 120 111 98 95 96 95 89 88 92 91 93 111 110 93 102 97 87
92 150 153 202 209 246 190 186 190 240 122 89 102 43 120 215 55 239 267 257 274 281 184 200 168 147 135 124 118 120 108 104 105 103 101 101 101 96 87 104 117 112 103 91
296 224 231 207 224 177 172 134 161 9 41 50 46 30 93 355 112 190 255 291 269 4 97 190 140 128 125 122 122 123 125 120 117 114 111 115 110 109 102 111 115 107 114 102
269 265 126 358 136 121 75 334 132 346 75 55 62 146 152 218 186 181 224 273 262 232 159 125 128 130 127 135 135 137 138 134 135 130 128 125 129 142 156 141 133 152 143 155
280 325 13 259 168 155 165 148 214 248 88 185 163 206 213 169 64 230 106 224 222 147 128 127 135 149 152 145 139 140 141 141 139 133 134 144 138 136 142 161 206 199 202 210